Hourly Weather Roundup
Issued by NWS Central Illinois

Home | Current Version | Previous Version | Text Only | Print | Product List | Glossary On
Versions: 1 2 3 4 5 6 7 8 9 10 11 12 13 14 15 16 17 18 19 20 21 22 23 24 25 26 27 28 29 30 31 32 33 34 35 36 37 38 39 40 41 42 43 44 45 46 47 48 49 50
000
NZUS43 KILX 300410
HWRILX

AREA WEATHER ROUNDUP
NATIONAL WEATHER SERVICE, LINCOLN IL
1100 PM CDT TUE JUL 29 2014


CITY           SKY/WX    TMP DP  RH WIND       PRES   REMARKS
BLOOMINGTON    CLEAR     65  56  72 W7        30.07S
CHAMPAIGN      CLEAR     61  58  90 SW7       30.06S
DECATUR        CLEAR     67  58  72 W5        30.07S
FLORA          CLEAR     60  56  89 CALM      30.09R
GALESBURG      CLEAR     63  58  84 W5        30.07S
JACKSONVILLE   CLEAR     64  60  88 SW3       30.09S
LACON          CLEAR     62  57  83 CALM      30.04R
LAWRENCEVILLE  CLEAR     62  58  86 CALM      30.08R
LITCHFIELD     CLEAR     57  56  94 CALM      30.09R
$$


CITY           SKY/WX    TMP DP  RH WIND       PRES   REMARKS
LINCOLN        CLEAR     66  59  78 CALM      30.04S
MACOMB         CLEAR     58  57  96 W5        30.10R
MATTOON        CLEAR     66  56  70 SW6       30.07R
MT CARMEL AP   CLEAR     61  59  94 CALM      30.08R
OLNEY-NOBLE AP CLEAR     59  57  94 CALM      30.08S
PARIS          CLEAR     59  57  92 CALM      30.07S
PEORIA         CLEAR     66  58  75 W3        30.06S
PONTIAC        CLEAR     64  61  88 SW5       30.04S
RANTOUL        CLEAR     64  58  81 W5        30.06S
ROBINSON       CLEAR     59  57  96 CALM      30.08S
SPRINGFIELD    CLEAR     63  59  87 SW5       30.08R
TAYLORVILLE    CLEAR     57  55  94 CALM      30.08S
$$

...REGIONAL REPORTS...


CITY           SKY/WX    TMP DP  RH WIND       PRES   REMARKS
CHICAGO O`HARE CLOUDY    63  56  78 N10       30.02F
KANKAKEE       PTCLDY    61  58  91 W3        30.03S
MOLINE         CLEAR     63  57  81 W5        30.05R
MOUNT VERNON   CLEAR     61  55  82 CALM      30.10R
PITTSFIELD     CLEAR     62  58  88 CALM      30.10R
QUINCY         CLEAR     63  57  81 SW3       30.09R
ROCKFORD       PTCLDY    67  52  58 NE9       30.06R
$$


CITY           SKY/WX    TMP DP  RH WIND       PRES   REMARKS
BURLINGTON     CLEAR     63  58  83 W5        30.07S
CEDAR RAPIDS   CLEAR     61  56  83 W6        30.07R
DES MOINES     CLEAR     67  56  67 CALM      30.10S
KIRKSVILLE     CLEAR     59  57  93 CALM      30.11R
OTTUMWA        CLEAR     60  57  89 W6        30.09R
ST LOUIS       CLEAR     70  56  61 CALM      30.10R
$$


CITY           SKY/WX    TMP DP  RH WIND       PRES   REMARKS
TERRE HAUTE    CLEAR     61  56  83 CALM      30.06S
EVANSVILLE     CLEAR     65  58  78 CALM      30.08S
INDIANAPOLIS   PTCLDY    61  59  93 S3        30.05S
LAFAYETTE      RAIN      60  60 100 CALM      30.03F VSB 1
MADISON        MOCLDY    62  57  83 CALM      30.03F
MILWAUKEE      MOCLDY    61  58  90 W3        30.00F
$$





USA.gov is the U.S. government's official web portal to all federal, state and local government web resources and services.